Date,TemperatureHighF,TemperatureAvgF,TemperatureLowF,DewpointHighF,DewpointAvgF,DewpointLowF,HumidityHigh,HumidityAvg,HumidityLow,PressureMaxIn,PressureMinIn,WindSpeedMaxMPH,WindSpeedAvgMPH,GustSpeedMaxMPH,PrecipitationSumIn
2012-1-1,-200,0,200,-100,-100,-100,0,0,100,0.00,40.00,0,-999,0,0.00
2012-1-2,-200,0,200,-100,-100,-100,0,0,100,0.00,40.00,0,-999,0,0.00
2012-1-3,-200,0,200,-100,-100,-100,0,0,100,0.00,40.00,0,-999,0,0.00
2012-1-4,-200,0,200,-100,-100,-100,0,0,100,0.00,40.00,0,-999,0,0.00
2012-1-6,-200,0,200,-100,-100,-100,0,0,100,0.00,40.00,0,-999,0,0.00
2012-1-7,-200,0,200,-100,-100,-100,0,0,100,0.00,40.00,0,-999,0,0.00
2012-1-8,-200,0,200,-100,-100,-100,0,0,100,0.00,40.00,0,-999,0,0.00
2012-1-9,36,20,34,35,-24,-100,100,55,82,0.00,40.00,6,-430,9,0.85
2012-1-10,53,41,30,34,28,22,100,65,31,0.00,40.00,10,3,13,0.01
2012-1-11,39,36,29,39,35,27,100,95,84,0.00,40.00,4,2,6,1.93
2012-1-12,57,47,36,45,42,31,100,84,58,0.00,40.00,19,6,25,0.61
2012-1-13,43,29,26,35,16,12,74,56,50,0.00,40.00,15,8,24,0.26
2012-1-14,39,30,26,23,16,11,78,55,33,0.00,40.00,12,7,19,0.00
2012-1-15,35,24,25,25,-6,-100,95,51,38,0.00,40.00,16,-196,20,0.00
2012-1-16,43,4,39,30,-86,-100,68,7,56,0.00,40.00,11,-892,16,0.00
2012-1-17,57,49,43,50,38,27,89,63,49,0.00,40.00,17,11,20,0.14
2012-1-18,56,36,23,44,21,13,68,54,42,0.00,40.00,17,10,27,0.14
2012-1-19,40,30,18,23,16,12,86,60,39,0.00,40.00,13,6,18,0.00
2012-1-20,45,40,33,33,25,19,100,55,41,0.00,40.00,11,4,15,0.59
2012-1-21,45,37,32,43,37,32,100,97,91,0.00,40.00,14,4,16,1.26
2012-1-22,37,34,31,35,32,29,100,95,83,0.00,40.00,7,3,10,0.06
2012-1-23,42,37,33,42,37,33,100,100,100,0.00,40.00,12,5,15,0.44
2012-1-24,58,47,35,42,34,26,100,66,29,0.00,40.00,10,5,16,0.04
2012-1-25,53,42,30,33,29,-100,92,62,38,0.00,40.00,10,-5,13,0.00
2012-1-26,61,49,37,55,42,32,92,75,57,0.00,40.00,17,7,22,0.04
2012-1-27,61,52,40,57,41,-100,93,67,53,0.00,40.00,18,3,28,0.41
2012-1-28,54,41,36,35,22,-100,58,45,38,0.00,40.00,16,-10,22,0.00
2012-1-29,46,37,26,15,11,-100,60,36,21,0.00,40.00,14,-2,20,0.00
2012-1-30,54,41,30,22,18,12,54,39,27,0.00,40.00,13,5,18,0.00
2012-1-31,66,52,37,29,21,-100,54,32,20,0.00,40.00,16,-9,25,0.00
2012-2-1,65,55,45,51,37,-100,96,54,35,0.00,40.00,10,-3,20,0.15
2012-2-2,58,51,42,50,38,-100,96,65,29,0.00,40.00,15,-1,25,0.20
2012-2-3,54,41,29,31,26,-100,85,57,31,0.00,40.00,9,-4,12,0.01
2012-2-4,50,40,36,42,32,-100,97,75,49,0.00,40.00,7,-12,9,0.35
2012-2-5,38,36,30,37,34,-100,97,94,90,0.00,40.00,6,-4,7,0.49
2012-2-6,48,38,30,38,33,29,99,83,61,0.00,40.00,11,2,15,0.02
2012-2-7,58,42,31,30,27,24,80,58,31,0.00,40.00,11,4,16,0.02
2012-2-8,39,35,29,35,28,25,93,77,63,0.00,40.00,14,4,18,0.17
2012-2-9,46,35,27,26,21,16,77,57,31,0.00,40.00,15,6,19,0.08
2012-2-10,44,34,23,32,25,20,87,70,52,0.00,40.00,6,2,8,0.01
2012-2-11,38,30,16,34,17,-2,87,60,40,0.00,40.00,24,11,33,0.05
2012-2-12,33,23,16,11,5,0,54,45,32,0.00,40.00,23,13,30,0.00
2012-2-13,47,33,24,22,13,8,64,44,22,0.00,40.00,23,5,29,0.00
2012-2-14,43,38,34,38,23,16,89,57,40,0.00,40.00,5,2,7,0.05
2012-2-15,59,45,36,37,30,27,83,55,30,0.00,40.00,13,4,21,0.04
2012-2-16,52,45,43,45,39,27,97,78,41,0.00,40.00,9,4,13,0.55
2012-2-17,53,46,36,42,30,22,71,52,32,0.00,40.00,16,7,22,0.02
2012-2-18,62,46,30,29,25,18,87,49,23,0.00,40.00,14,4,19,0.00
2012-2-19,47,36,30,31,29,25,98,78,44,0.00,40.00,8,4,13,0.40
2012-2-20,49,34,23,30,26,22,98,76,37,0.00,40.00,7,2,9,0.23
2012-2-21,49,35,21,35,27,18,95,72,50,0.00,40.00,17,7,22,0.01
2012-2-22,60,49,39,45,36,26,90,63,28,0.00,40.00,18,7,26,1.00
2012-2-23,68,53,42,49,43,37,86,70,36,0.00,40.00,12,6,16,1.02
2012-2-24,72,56,40,55,42,16,93,63,33,0.00,40.00,19,10,33,0.08
2012-2-25,39,29,31,21,3,-100,51,36,32,0.00,40.00,16,-80,29,0.08
2012-2-26,48,35,22,20,15,12,70,45,25,0.00,40.00,13,4,18,0.00
2012-2-27,61,43,25,33,25,19,81,51,28,0.00,40.00,16,5,21,0.00
2012-2-28,63,52,36,31,22,6,61,33,10,0.00,40.00,12,5,17,0.00
2012-2-29,67,52,42,55,45,27,97,76,42,0.00,40.00,14,6,20,1.13
2012-3-1,66,59,46,54,34,22,87,44,18,0.00,40.00,13,6,24,0.73
2012-3-2,48,43,40,42,33,-100,96,72,47,0.00,40.00,14,-12,18,1.07
2012-3-3,54,50,47,20,17,12,33,27,20,0.00,40.00,12,4,20,0.48
2012-3-4,47,38,34,23,18,-100,57,44,29,0.00,40.00,16,1,22,0.02
2012-3-5,35,30,30,31,21,-100,97,73,53,0.00,40.00,17,-16,21,0.25
2012-3-6,53,38,22,22,19,18,86,52,26,0.00,40.00,12,4,16,0.01
2012-3-7,63,48,28,40,31,19,76,53,38,0.00,40.00,19,7,22,0.00
2012-3-8,66,57,44,52,45,-100,83,66,46,0.00,40.00,23,2,34,0.43
2012-3-9,58,48,41,51,28,15,91,49,27,0.00,40.00,21,10,28,0.53
2012-3-10,58,42,28,22,16,11,71,39,18,0.00,40.00,9,3,13,0.00
2012-3-11,62,45,30,29,23,-100,72,45,26,0.00,40.00,16,5,20,0.00
2012-3-12,69,54,37,53,39,27,85,56,38,0.00,40.00,15,5,19,0.08
2012-3-13,78,65,55,52,47,41,80,55,28,0.00,40.00,10,5,14,0.08
2012-3-14,72,62,56,45,40,36,62,46,27,0.00,40.00,4,1,4,0.00
2012-3-15,74,59,48,51,46,41,79,62,36,0.00,40.00,11,3,15,0.02
2012-3-16,73,60,49,53,51,46,91,72,47,0.00,40.00,9,3,13,0.02
2012-3-17,73,59,52,57,52,49,95,73,42,0.00,40.00,12,3,15,0.02
2012-3-18,66,60,54,59,56,53,95,85,73,0.00,40.00,10,4,12,0.09
2012-3-19,56,52,51,55,53,50,97,96,93,0.00,40.00,6,2,7,0.60
2012-3-23,76,76,76,57,57,57,51,51,51,0.00,40.00,2,2,5,0.00
2012-3-24,61,60,60,58,58,58,93,92,91,0.00,40.00,5,2,7,0.31
2012-4-17,73,68,60,45,41,37,60,38,28,0.00,40.00,10,5,14,0.00
2012-4-18,60,50,48,51,48,45,95,90,60,0.00,40.00,6,3,9,2.42
2012-4-19,60,54,48,52,49,46,96,85,66,0.00,40.00,8,2,10,0.14
2012-4-20,69,55,43,55,49,42,98,80,53,0.00,40.00,13,4,16,0.00
2012-4-21,73,61,54,60,54,49,94,80,45,0.00,40.00,13,4,17,0.54
2012-4-22,55,50,44,51,46,-100,96,91,76,0.00,40.00,12,6,18,2.00
2012-4-23,49,44,37,37,30,17,87,61,29,0.00,40.00,18,9,26,0.59
2012-4-24,59,48,42,22,18,11,40,29,17,0.00,40.00,18,7,25,0.02
2012-4-25,64,52,36,49,36,22,89,55,35,0.00,40.00,14,4,17,0.02
2012-4-26,70,58,52,60,55,49,97,87,64,0.00,40.00,7,3,12,1.56
2012-4-27,68,59,52,54,38,27,76,48,23,0.00,40.00,17,6,25,0.03
2012-4-28,55,48,41,45,38,29,96,67,41,0.00,40.00,11,4,15,0.54
2012-4-29,70,56,44,57,49,-100,96,80,62,0.00,40.00,10,4,14,0.06
2012-4-30,62,60,58,61,57,55,96,91,86,0.00,40.00,8,4,11,0.00
2012-5-1,82,68,61,63,61,56,98,75,41,0.00,40.00,11,4,17,0.16
2012-5-2,89,74,62,67,61,57,94,69,35,0.00,40.00,10,3,16,0.01
2012-5-3,87,73,60,64,60,50,95,66,38,0.00,40.00,11,3,17,0.00
2012-5-4,84,66,55,64,57,52,90,70,44,0.00,40.00,8,2,11,0.02
2012-5-5,72,65,61,65,62,58,96,88,70,0.00,40.00,7,2,9,0.72
2012-5-6,74,66,60,63,60,-100,97,84,65,0.00,40.00,11,4,15,0.10
2012-5-7,67,64,61,61,60,58,95,85,76,0.00,40.00,11,6,16,0.09
2012-5-8,70,65,62,65,60,56,94,86,76,0.00,40.00,14,9,18,0.60
2012-5-9,67,60,54,62,56,48,97,88,66,0.00,40.00,8,3,11,0.98
2012-5-10,65,57,49,48,41,35,88,57,33,0.00,40.00,14,7,20,0.02
2012-5-11,70,56,41,43,37,29,88,53,26,0.00,40.00,9,4,13,0.00
2012-5-12,72,58,41,51,45,39,91,65,39,0.00,40.00,11,4,15,0.00
2012-5-13,70,61,52,58,53,-100,93,75,56,0.00,40.00,14,5,18,0.25
2012-5-14,65,61,58,63,59,56,97,94,89,0.00,40.00,17,5,19,2.83
2012-5-15,75,65,59,64,61,59,98,88,58,0.00,40.00,4,2,6,0.69
2012-5-16,79,66,55,62,55,49,98,72,35,0.00,40.00,8,2,11,0.24
2012-5-17,76,65,52,62,56,50,94,75,56,0.00,40.00,9,3,13,0.02
2012-5-18,73,61,53,55,51,47,93,69,49,0.00,40.00,8,2,10,0.00
2012-5-19,75,62,49,56,50,43,93,68,34,0.00,40.00,5,2,8,0.00
2012-5-20,80,63,50,58,52,-100,95,72,37,0.00,40.00,10,3,16,0.00
2012-5-21,81,66,55,61,57,53,97,76,42,0.00,40.00,9,3,12,0.69
2012-5-22,77,66,58,65,60,58,98,84,54,0.00,40.00,6,3,9,0.69
2012-5-23,73,64,60,64,61,59,98,88,65,0.00,40.00,6,2,8,0.41
2012-5-24,75,64,60,64,62,60,98,88,66,0.00,40.00,7,2,9,0.44
2012-5-25,86,72,61,68,62,52,97,74,31,0.00,40.00,9,2,12,0.00
2012-5-26,87,74,60,68,63,58,95,73,46,0.00,40.00,7,3,9,0.00
2012-5-27,83,73,63,66,63,-100,96,74,48,0.00,40.00,9,3,12,0.00
2012-5-28,85,74,63,68,65,61,94,74,52,0.00,40.00,11,3,14,0.00
2012-5-29,85,73,65,66,64,62,97,76,51,0.00,40.00,16,6,26,0.78
2012-5-30,84,71,64,65,59,47,97,70,28,0.00,40.00,13,4,19,0.78
2012-5-31,88,70,63,63,56,47,94,61,29,0.00,40.00,6,3,9,0.30
2012-6-1,78,66,61,66,60,48,95,82,60,0.00,40.00,16,6,23,0.46
2012-6-2,68,58,50,48,44,40,82,58,38,0.00,40.00,13,5,19,0.11
2012-6-3,75,61,47,59,48,-100,93,64,39,0.00,40.00,9,3,13,0.11
2012-6-4,77,68,59,56,50,44,83,56,31,0.00,40.00,11,5,17,0.07
2012-6-5,70,61,54,55,52,43,94,75,39,0.00,40.00,7,3,9,0.18
2012-6-6,66,59,55,56,53,52,96,83,63,0.00,40.00,9,3,12,0.76
2012-6-7,77,61,52,57,53,47,98,75,36,0.00,40.00,8,3,13,0.09
2012-6-8,82,64,50,57,51,-100,96,67,31,0.00,40.00,8,-5,13,0.07
2012-6-9,85,69,51,59,53,49,94,63,31,0.00,40.00,4,1,8,0.00
2012-6-10,83,71,57,63,56,-100,93,65,42,0.00,40.00,12,4,15,0.00
2012-6-11,76,68,62,68,63,56,96,86,75,0.00,40.00,12,4,17,0.77
2012-6-12,84,73,67,71,67,65,97,83,54,0.00,40.00,8,4,12,1.32
2012-6-13,81,71,60,66,61,53,96,73,38,0.00,40.00,9,4,13,0.07
2012-6-14,75,64,51,60,55,49,94,74,50,0.00,40.00,8,2,11,0.01
2012-6-15,76,68,60,61,58,54,95,72,49,0.00,40.00,7,3,11,0.01
2012-6-16,76,63,53,57,54,51,93,69,45,0.00,40.00,8,2,11,0.00
2012-6-17,75,64,53,61,56,-100,93,72,55,0.00,40.00,10,4,12,0.00
2012-6-18,76,69,64,68,64,60,96,82,70,0.00,40.00,9,4,13,0.47
2012-6-19,90,75,66,70,66,63,97,78,43,0.00,40.00,6,2,8,0.01
2012-6-20,87,74,65,71,68,64,97,82,52,0.00,40.00,6,2,7,0.00
2012-6-21,90,78,66,72,68,63,96,74,42,0.00,40.00,6,2,10,0.00
2012-6-22,89,73,68,68,66,65,92,76,46,0.00,40.00,7,3,9,0.11
2012-6-23,88,73,63,66,61,52,97,68,32,0.00,40.00,6,2,13,0.05
2012-6-24,85,73,60,65,61,55,93,69,37,0.00,40.00,9,3,11,0.00
2012-6-25,86,75,64,67,60,48,94,64,37,0.00,40.00,13,4,17,0.00
2012-6-26,79,68,59,49,47,43,69,48,30,0.00,40.00,10,4,18,0.00
2012-6-27,84,66,50,55,50,47,89,57,30,0.00,40.00,9,3,13,0.00
2012-6-28,95,76,55,63,57,52,90,57,26,0.00,40.00,8,3,13,0.00
2012-6-29,101,89,79,73,64,55,51,42,32,0.00,40.00,12,5,19,0.00
2012-6-30,100,88,70,71,66,62,80,49,31,0.00,40.00,7,4,11,0.00
2012-7-1,92,82,68,70,65,56,89,59,33,0.00,40.00,14,3,19,0.00
2012-7-2,91,78,64,64,62,59,90,59,37,0.00,40.00,13,4,16,0.14
2012-7-3,91,76,65,71,65,62,90,71,43,0.00,40.00,9,2,11,0.01
2012-7-4,96,78,68,69,66,63,92,68,34,0.00,40.00,7,3,10,0.00
2012-7-5,94,80,68,71,65,59,91,64,31,0.00,40.00,15,3,19,0.03
2012-7-6,94,80,68,72,67,63,89,66,36,0.00,40.00,7,2,10,0.02
2012-7-7,100,83,69,73,68,61,94,66,30,0.00,40.00,5,2,9,0.00
2012-7-8,99,84,71,72,68,64,90,61,33,0.00,40.00,13,4,15,0.07
2012-7-9,87,74,69,71,69,66,97,84,52,0.00,40.00,13,3,20,0.76
2012-7-10,83,71,64,69,68,63,98,86,60,0.00,40.00,9,3,11,0.53
2012-7-11,80,71,66,67,64,59,96,79,54,0.00,40.00,13,3,23,0.02
2012-7-12,77,68,64,65,62,59,93,77,58,0.00,40.00,5,2,7,0.02
2012-7-13,75,70,66,65,63,58,94,79,56,0.00,40.00,4,2,6,0.02
2012-7-14,83,73,66,73,67,62,97,82,64,0.00,40.00,12,3,14,0.34
2012-7-15,87,76,68,73,70,67,98,84,56,0.00,40.00,13,3,16,0.35
2012-7-16,91,77,68,71,69,66,97,78,47,0.00,40.00,9,3,14,0.25
2012-7-17,94,80,67,71,67,60,95,69,32,0.00,40.00,10,3,13,0.01
2012-7-18,91,79,70,72,70,66,94,76,44,0.00,40.00,14,3,18,0.23
2012-7-19,90,77,68,72,68,65,95,76,47,0.00,40.00,11,3,18,0.08
2012-7-20,80,73,69,69,68,65,95,83,68,0.00,40.00,6,2,8,0.26
2012-7-21,83,74,67,73,69,66,98,84,60,0.00,40.00,8,3,11,0.43
2012-7-22,81,72,67,71,69,67,98,88,69,0.00,40.00,12,5,17,0.39
2012-7-23,86,76,69,73,70,68,95,82,57,0.00,40.00,12,4,17,0.13
2012-7-24,85,77,70,71,68,63,92,72,59,0.00,40.00,15,6,24,0.06
2012-7-25,89,77,65,71,66,62,90,70,50,0.00,40.00,9,3,14,0.04
2012-7-26,95,84,73,71,69,63,90,63,37,0.00,40.00,10,4,14,0.00
2012-7-27,88,76,67,71,67,63,97,73,47,0.00,40.00,8,3,14,0.34
2012-7-28,88,76,65,71,63,59,98,70,38,0.00,40.00,9,3,13,0.06
2012-7-29,86,74,63,66,62,60,93,69,41,0.00,40.00,7,3,10,0.01
2012-7-30,83,73,65,70,65,62,94,76,53,0.00,40.00,11,3,15,0.02
2012-7-31,82,72,63,67,65,62,96,78,57,0.00,40.00,12,4,15,0.18
2012-8-1,85,70,63,70,65,62,98,84,52,0.00,40.00,9,3,11,0.59
2012-8-2,92,75,62,71,65,61,98,76,37,0.00,40.00,5,2,7,0.20
2012-8-3,85,74,67,72,69,65,96,80,62,0.00,40.00,12,4,16,0.00
2012-8-4,85,75,67,72,69,65,95,82,60,0.00,40.00,12,4,15,0.17
2012-8-5,84,75,68,74,70,67,97,84,64,0.00,40.00,19,5,24,0.85
2012-8-6,80,73,70,73,69,68,97,88,72,0.00,40.00,6,2,8,0.95
2012-8-7,87,75,67,72,68,62,98,80,47,0.00,40.00,7,2,9,0.02
2012-8-8,88,77,69,70,66,59,96,72,39,0.00,40.00,7,3,9,0.00
2012-8-9,87,76,66,70,67,64,98,75,49,0.00,40.00,10,4,13,0.17
2012-8-10,83,73,67,70,66,64,96,81,55,0.00,40.00,20,6,26,0.37
2012-8-11,82,73,65,67,62,56,95,71,48,0.00,40.00,9,3,12,0.11
2012-8-12,84,69,56,61,57,52,94,69,34,0.00,40.00,7,2,10,0.00
2012-8-13,80,64,57,63,58,55,93,79,53,0.00,40.00,9,3,11,0.00
2012-8-14,81,77,72,65,64,62,78,65,54,0.00,40.00,4,4,6,0.64
2012-8-16,87,78,68,64,60,56,86,55,38,0.00,40.00,6,3,8,0.01
2012-8-17,82,72,61,65,62,58,92,70,49,0.00,40.00,9,3,12,0.01
2012-8-18,81,71,64,62,59,53,89,67,38,0.00,40.00,8,3,10,0.00
2012-8-19,69,64,61,63,61,59,98,89,75,0.00,40.00,6,2,8,2.29
2012-8-20,79,66,62,64,62,60,95,84,53,0.00,40.00,9,2,11,0.07
2012-8-21,84,68,58,62,58,51,99,74,35,0.00,40.00,5,2,8,0.06
2012-8-22,79,68,62,64,62,58,95,77,50,0.00,40.00,6,2,8,0.20
2012-8-23,84,71,61,66,63,59,96,78,46,0.00,40.00,13,2,17,0.02
2012-8-24,81,68,60,66,61,57,96,76,52,0.00,40.00,8,3,13,0.00
2012-8-25,72,64,59,63,59,55,94,82,57,0.00,40.00,10,3,13,0.05
2012-8-26,81,69,63,65,62,60,96,81,55,0.00,40.00,7,2,10,0.39
2012-8-27,85,72,61,66,63,56,97,75,38,0.00,40.00,7,2,10,0.02
2012-8-28,85,75,64,69,64,61,92,72,48,0.00,40.00,7,2,9,0.02
2012-8-29,86,72,60,64,60,56,94,71,36,0.00,40.00,7,2,9,0.00
2012-8-30,85,72,61,68,64,60,95,74,50,0.00,40.00,11,4,14,0.00
2012-8-31,94,80,66,69,67,64,95,68,39,0.00,40.00,9,3,12,0.00
2012-9-1,91,76,69,71,68,66,96,77,43,0.00,40.00,8,1,12,0.44
2012-9-2,87,73,67,73,69,66,98,89,56,0.00,40.00,7,2,11,0.72
2012-9-3,75,72,69,71,69,67,95,91,82,0.00,40.00,8,3,11,0.05
2012-9-4,80,74,70,73,70,69,95,85,70,0.00,40.00,15,7,21,0.10
2012-9-5,83,74,69,73,70,68,98,88,68,0.00,40.00,11,5,16,0.84
2012-9-6,84,73,67,71,68,64,98,84,55,0.00,40.00,7,2,10,0.60
2012-9-7,86,73,62,68,65,61,97,78,49,0.00,40.00,9,3,12,0.02
2012-9-8,81,70,59,69,63,52,97,79,55,0.00,40.00,14,4,20,0.13
2012-9-9,74,60,50,54,51,47,95,70,40,0.00,40.00,11,4,15,0.05
2012-9-10,75,61,50,53,48,40,95,67,30,0.00,40.00,13,3,16,0.00
2012-9-11,76,60,46,54,49,44,94,71,39,0.00,40.00,6,2,9,0.00
2012-9-12,79,62,50,58,53,49,96,73,41,0.00,40.00,6,2,8,0.00
2012-9-13,80,62,50,58,52,43,96,73,30,0.00,40.00,7,2,9,0.00
2012-9-14,80,62,50,60,53,49,95,76,40,0.00,40.00,6,1,9,0.00
2012-9-15,77,64,56,61,58,54,95,79,51,0.00,40.00,7,2,10,0.00
2012-9-16,65,60,58,57,56,51,94,84,69,0.00,40.00,7,3,10,0.00
2012-9-17,66,62,59,64,60,57,97,93,80,0.00,40.00,6,3,8,0.62
2012-9-18,72,66,62,68,64,54,97,90,73,0.00,40.00,24,9,31,2.49
2012-9-19,71,60,50,55,49,45,94,70,41,0.00,40.00,7,3,12,0.02
2012-9-20,72,61,53,58,54,50,94,75,56,0.00,40.00,10,4,14,0.00
2012-9-21,79,65,52,61,56,51,96,76,42,0.00,40.00,9,3,11,0.00
2012-9-22,79,70,59,59,56,41,93,64,42,0.00,40.00,13,6,18,0.00
2012-9-23,68,57,44,42,36,-100,82,49,25,0.00,40.00,11,4,16,0.00
2012-9-24,69,51,39,43,38,-100,92,64,34,0.00,40.00,9,-4,12,0.00
2012-9-25,71,56,42,55,46,39,92,73,39,0.00,40.00,14,3,19,0.09
2012-9-26,82,66,52,62,56,50,95,73,41,0.00,40.00,8,4,11,0.02
2012-9-27,83,69,58,62,60,56,95,74,42,0.00,40.00,5,2,8,0.00
2012-9-28,73,67,61,63,60,56,92,79,61,0.00,40.00,9,2,15,0.10
2012-9-29,68,61,56,60,57,48,94,84,68,0.00,40.00,11,4,14,0.02
2012-9-30,73,56,43,52,47,42,96,71,37,0.00,40.00,6,2,8,0.00
2012-10-1,58,54,51,55,52,49,96,91,82,0.00,40.00,4,2,6,0.30
2012-10-2,65,59,56,63,59,55,97,96,94,0.00,40.00,5,2,6,0.99
2012-10-3,79,65,61,67,63,61,98,84,62,0.00,40.00,9,4,12,0.02
2012-10-4,76,68,57,62,56,48,90,68,38,0.00,40.00,11,4,18,0.01
2012-10-5,78,60,49,57,52,47,96,76,35,0.00,40.00,6,2,10,0.00
2012-10-6,72,60,49,57,50,40,92,71,49,0.00,40.00,14,6,20,0.00
2012-10-7,50,46,40,47,44,38,96,88,71,0.00,40.00,5,2,6,0.86
2012-10-8,45,41,37,42,40,36,97,92,82,0.00,40.00,6,2,8,0.16
2012-10-9,60,49,42,50,44,40,96,84,60,0.00,40.00,5,2,7,0.07
2012-10-10,63,54,43,49,45,37,97,72,50,0.00,40.00,12,3,18,0.02
2012-10-11,63,50,38,40,34,29,88,56,35,0.00,40.00,14,4,20,0.02
2012-10-12,68,54,40,41,37,33,94,57,30,0.00,40.00,15,4,19,0.00
2012-10-13,60,49,37,41,38,33,95,69,45,0.00,40.00,10,3,15,0.00
2012-10-14,70,55,40,55,47,38,95,77,52,0.00,40.00,11,3,14,0.00
2012-10-15,71,62,53,59,51,36,93,70,35,0.00,40.00,18,7,24,0.25
2012-10-16,67,55,44,38,36,31,76,51,26,0.00,40.00,11,4,17,0.04
2012-10-17,66,51,36,45,40,35,93,68,42,0.00,40.00,13,4,17,0.00
2012-10-18,65,56,45,56,50,42,92,80,64,0.00,40.00,19,8,28,0.00
2012-10-19,69,58,46,55,42,31,97,62,24,0.00,40.00,12,4,17,0.00
2012-10-20,59,52,42,39,36,33,77,54,39,0.00,40.00,13,5,19,0.00
2012-10-21,63,49,36,40,36,33,92,63,33,0.00,40.00,10,3,14,0.00
2012-10-22,75,54,36,48,41,34,96,66,35,0.00,40.00,7,2,9,0.00
2012-10-23,79,61,44,51,47,42,95,64,31,0.00,40.00,11,3,15,0.00
2012-10-24,81,63,49,54,49,45,89,63,31,0.00,40.00,5,1,6,0.00
2012-10-25,77,62,48,53,48,42,91,65,29,0.00,40.00,13,3,16,0.00
2012-10-26,69,58,50,58,53,47,93,83,65,0.00,40.00,11,2,13,0.00
2012-10-27,65,58,52,56,53,50,96,83,63,0.00,40.00,9,3,12,0.02
2012-10-28,59,55,46,51,46,39,87,73,57,0.00,40.00,14,9,20,0.08
2012-10-29,46,40,39,40,34,28,85,76,62,0.00,40.00,23,14,35,0.69
2012-10-30,42,38,35,29,27,25,76,61,57,0.00,40.00,22,10,34,0.04
2012-10-31,46,42,41,31,30,28,65,61,54,0.00,40.00,14,8,22,0.00
2012-11-1,46,43,41,33,30,24,66,61,41,0.00,40.00,15,8,24,0.00
2012-11-2,54,46,43,27,23,20,53,40,28,0.00,40.00,18,7,26,0.00
2012-11-3,53,43,37,38,27,23,91,53,31,0.00,40.00,13,7,19,0.33
2012-11-4,52,43,39,42,37,26,95,79,42,0.00,40.00,10,3,13,0.56
2012-11-5,51,39,30,28,26,24,87,62,36,0.00,40.00,8,3,10,0.01
2012-11-6,39,33,25,30,27,22,91,78,65,0.00,40.00,5,1,7,0.00
2012-11-7,47,37,28,31,29,27,95,75,52,0.00,40.00,6,3,11,0.00
2012-11-8,53,42,33,29,20,14,82,44,22,0.00,40.00,15,6,18,0.00
2012-11-9,64,44,29,31,26,23,82,53,23,0.00,40.00,8,2,11,0.00
2012-11-10,70,49,31,35,29,27,85,52,20,0.00,40.00,7,2,10,0.00
2012-11-11,69,52,36,46,35,30,78,52,26,0.00,40.00,17,5,24,0.00
2012-11-12,64,59,50,58,53,46,95,82,63,0.00,40.00,17,11,23,0.67
2012-11-13,50,42,33,45,29,22,86,63,36,0.00,40.00,11,6,15,0.97
2012-11-14,44,33,24,27,24,-100,92,71,47,0.00,40.00,6,2,12,0.01
2012-11-15,45,35,26,29,27,24,94,74,46,0.00,40.00,5,2,8,0.00
2012-11-16,52,36,25,32,28,23,96,74,36,0.00,40.00,11,2,14,0.00
2012-11-17,53,36,26,29,26,24,93,66,33,0.00,40.00,8,3,11,0.00
2012-11-18,53,41,30,34,30,26,86,65,47,0.00,40.00,8,3,10,0.00
2012-11-19,51,43,34,39,36,32,94,76,63,0.00,40.00,5,2,7,0.00
2012-11-20,50,39,32,40,35,31,97,87,67,0.00,40.00,4,1,5,0.00
2012-11-21,58,39,29,37,32,29,99,77,34,0.00,40.00,5,2,7,0.04
2012-11-22,59,39,27,33,28,25,95,66,27,0.00,40.00,5,2,7,0.01
2012-11-23,63,45,27,42,31,24,86,60,37,0.00,40.00,13,5,21,0.01
2012-11-24,44,33,28,26,18,14,61,53,44,0.00,40.00,24,13,31,0.00
2012-11-25,53,35,26,18,15,9,65,45,17,0.00,40.00,10,5,13,0.00
2012-11-26,59,48,40,38,24,13,72,38,27,0.00,40.00,9,3,14,0.01
2012-11-27,47,42,32,42,38,31,96,85,62,0.00,40.00,7,2,10,0.17
2012-11-28,46,38,31,33,23,17,97,57,32,0.00,40.00,11,4,15,0.03
2012-11-29,50,35,22,27,22,18,87,61,29,0.00,40.00,7,2,10,0.00
2012-11-30,59,39,26,31,26,22,87,64,28,0.00,40.00,6,2,8,0.00
2012-12-1,60,44,28,41,34,26,91,70,48,0.00,40.00,6,2,9,0.00
2012-12-2,65,49,34,46,39,31,93,71,46,0.00,40.00,13,4,19,0.01
2012-12-3,69,60,51,52,49,46,88,67,54,0.00,40.00,12,4,15,0.01
2012-12-4,69,57,43,51,46,42,97,71,45,0.00,40.00,13,5,16,0.00
2012-12-5,62,54,37,50,35,22,77,50,26,0.00,40.00,12,6,17,0.02
2012-12-6,45,37,29,30,25,-100,89,66,50,0.00,40.00,11,5,13,0.01
2012-12-7,52,44,38,42,37,28,93,75,59,0.00,40.00,9,5,11,0.03
2012-12-8,65,52,38,56,45,38,98,81,55,0.00,40.00,11,4,15,0.02
2012-12-9,62,53,42,52,48,40,95,85,65,0.00,40.00,13,5,16,0.01
2012-12-10,60,56,52,55,53,39,97,91,76,0.00,40.00,15,4,20,0.12
2012-12-11,48,40,31,42,29,23,80,65,55,0.00,40.00,15,7,20,0.05
2012-12-12,41,36,30,29,27,24,81,69,58,0.00,40.00,5,2,8,0.00
2012-12-13,49,33,23,27,22,18,92,68,31,0.00,40.00,4,2,6,0.00
2012-12-14,58,35,20,27,21,14,89,62,18,0.00,40.00,6,2,9,0.00
2012-12-15,54,41,31,31,26,21,79,56,31,0.00,40.00,9,3,12,0.04
2012-12-16,54,43,39,47,40,31,96,90,60,0.00,40.00,9,3,12,0.79
2012-12-17,54,49,42,50,47,41,97,93,79,0.00,40.00,11,3,17,0.23
2012-12-18,51,46,33,44,36,28,88,69,57,0.00,40.00,14,6,22,0.09
2012-12-19,57,48,31,33,30,27,84,52,32,0.00,40.00,15,6,28,0.01
2012-12-20,42,40,38,40,34,30,96,79,63,0.00,40.00,16,6,19,1.34
2012-12-21,45,35,31,41,22,18,97,61,53,0.00,40.00,19,10,32,0.84
2012-12-22,37,33,31,20,17,14,62,52,41,0.00,40.00,23,13,35,0.00
2012-12-23,52,45,33,28,21,15,64,41,29,0.00,40.00,14,6,19,0.00
2012-12-24,42,37,32,37,34,27,98,89,57,0.00,40.00,6,2,8,1.04
2012-12-25,51,43,35,40,36,33,98,80,56,0.00,40.00,7,2,10,0.01
2012-12-26,41,33,32,37,32,31,98,95,75,0.00,40.00,13,4,17,3.09
2012-12-27,39,33,29,33,24,21,79,69,63,0.00,40.00,26,13,36,0.11
2012-12-28,37,32,25,28,24,21,87,74,59,0.00,40.00,7,2,9,0.00
2012-12-29,43,34,32,36,28,21,97,77,59,0.00,40.00,19,8,30,0.24
2012-12-30,35,31,28,22,17,14,62,55,45,0.00,40.00,20,10,30,0.02
2012-12-31,43,31,20,21,17,13,84,59,32,0.00,40.00,8,3,11,0.00
2013-1-1,47,42,38,39,31,14,81,66,30,0.00,40.00,15,6,19,0.08